Simultaneous Nadir Overpasses (SNOs) Predictions

Prediction of SNOs between METOP-C and LANDSAT-8 Satellite Orbit:

Table of predicted SNOs for the next 14.0 days since TLE Epoch: 7/18/2020
Index Date (METOP-C) Time (METOP-C) Lat,Lon (METOP-C) SZA (METOP-C ) Date (LANDSAT-8) Time (LANDSAT-8) Lat,Lon (LANDSAT-8) SZA (LANDSAT-8 ) Distance(km) Time Diff (sec)
1 07/19/2020 08:20:09 81.13, 94.94 62.40 07/19/2020 08:20:44 81.13, 95.02 62.42 1.38 35
2 07/19/2020 09:10:48 -81.15, -97.11 117.52 07/19/2020 09:10:10 -81.15, -97.06 117.53 0.82 38
3 07/22/2020 03:54:31 81.13, 161.40 62.94 07/22/2020 03:55:00 81.14, 161.51 62.97 2.00 29
4 07/22/2020 04:45:10 -81.15, -30.66 116.98 07/22/2020 04:44:26 -81.16, -30.54 116.98 2.23 44
5 07/24/2020 23:28:53 81.13,-132.16 63.53 07/24/2020 23:29:16 81.14,-132.02 63.56 2.59 23
6 07/25/2020 00:19:30 -81.16, 36.14 116.35 07/25/2020 00:18:41 -81.16, 35.97 116.39 3.06 49
7 07/27/2020 19:03:14 81.13, -65.73 64.16 07/27/2020 19:03:31 81.14, -65.55 64.19 3.15 17
8 07/27/2020 19:53:52 -81.16, 102.56 115.72 07/27/2020 19:52:57 -81.16, 102.45 115.75 1.84 55
9 07/30/2020 14:37:35 81.15, 1.06 64.88 07/30/2020 14:37:47 81.14, 0.89 64.86 2.94 12
